Location: Aurora Center
(43.5271°N, 98.5894°W)
Time: 00:53:07
(UTC-05:00)

Envisat - Pass Details

Date: 24 June 2024
Orbit: 762 x 764 km, 98.3° (Epoch: 12 July)

Event Time Altitude Azimuth Distance (km) Brightness Sun altitude
Rises 04:44:54 0° 15° (NNE) 3,235 7.4 -10.4°
Reaches altitude 10° 04:47:13 10° 17° (NNE) 2,305 6.6 -10.1°
Maximum altitude 04:52:18 73° 102° (ESE) 799 3.2 -9.5°
Drops below altitude 10° 04:57:20 10° 188° (S) 2,288 5.0 -8.8°
Enters shadow 04:58:36 - 189° (S) 2,792 5.4 -8.7°
